TimePST,TemperatureF,Dew PointF,Humidity,Sea Level PressureIn,VisibilityMPH,Wind Direction,Wind SpeedMPH,Gust SpeedMPH,PrecipitationIn,Events,Conditions,WindDirDegrees,DateUTC
12:51 AM,48.9,39.9,71,30.15,10.0,Calm,Calm,-,N/A,,Clear,0,2014-01-21 08:51:00
1:51 AM,48.9,39.9,71,30.16,10.0,Calm,Calm,-,N/A,,Clear,0,2014-01-21 09:51:00
2:51 AM,48.0,39.0,71,30.15,10.0,Calm,Calm,-,N/A,,Clear,0,2014-01-21 10:51:00
3:51 AM,46.9,37.9,71,30.14,10.0,Calm,Calm,-,N/A,,Clear,0,2014-01-21 11:51:00
4:51 AM,46.0,39.0,76,30.12,10.0,Calm,Calm,-,N/A,,Clear,0,2014-01-21 12:51:00
5:51 AM,46.9,35.1,63,30.13,10.0,Calm,Calm,-,N/A,,Clear,0,2014-01-21 13:51:00
6:51 AM,48.9,35.1,59,30.14,10.0,Calm,Calm,-,N/A,,Clear,0,2014-01-21 14:51:00
7:51 AM,52.0,34.0,50,30.14,10.0,NE,3.5,-,N/A,,Clear,40,2014-01-21 15:51:00
8:51 AM,63.0,28.9,28,30.15,10.0,Calm,Calm,-,N/A,,Clear,0,2014-01-21 16:51:00
9:51 AM,69.1,32.0,25,30.14,10.0,Calm,Calm,-,N/A,,Clear,0,2014-01-21 17:51:00
10:51 AM,68.0,44.1,42,30.14,8.0,WNW,4.6,-,N/A,,Clear,300,2014-01-21 18:51:00
11:51 AM,73.0,39.9,30,30.11,10.0,WNW,9.2,-,N/A,,Clear,290,2014-01-21 19:51:00
12:51 PM,66.0,45.0,47,30.08,10.0,West,6.9,-,N/A,,Clear,280,2014-01-21 20:51:00
1:51 PM,66.9,45.0,45,30.07,10.0,West,10.4,-,N/A,,Clear,270,2014-01-21 21:51:00
2:51 PM,64.0,51.1,63,30.07,10.0,WNW,6.9,-,N/A,,Clear,300,2014-01-21 22:51:00
3:51 PM,62.1,53.1,72,30.07,10.0,West,11.5,-,N/A,,Clear,280,2014-01-21 23:51:00
4:51 PM,60.1,54.0,80,30.08,9.0,WNW,4.6,-,N/A,,Clear,300,2014-01-22 00:51:00
5:51 PM,59.0,51.1,75,30.08,10.0,NW,3.5,-,N/A,,Clear,320,2014-01-22 01:51:00
6:51 PM,59.0,50.0,72,30.08,9.0,NW,3.5,-,N/A,,Clear,320,2014-01-22 02:51:00
7:51 PM,55.0,51.1,86,30.08,7.0,WNW,3.5,-,N/A,,Clear,300,2014-01-22 03:51:00
8:51 PM,55.9,51.1,84,30.07,7.0,Calm,Calm,-,N/A,,Clear,0,2014-01-22 04:51:00
9:51 PM,55.9,54.0,93,30.08,5.0,WNW,3.5,-,N/A,,Clear,300,2014-01-22 05:51:00
10:51 PM,55.9,54.0,93,30.06,6.0,WNW,3.5,-,N/A,,Clear,300,2014-01-22 06:51:00
11:51 PM,57.0,55.0,93,30.06,6.0,Calm,Calm,-,N/A,,Clear,0,2014-01-22 07:51:00